Find Starlink 3665

NORAD ID: 52098 Int'l Des: 2022-029 Owner: SPXS Country: US Constellation: starlink operational
LEOCIRCULAR

現在のビュー

3D地球を読み込み中...

About Starlink 3665

Starlink 3665 (NORAD 52098) is a starlink constellation satellite (v1.5) launched Mar 19, 2022 by SPXS of US. It operates in LEO, CIRCULAR orbit with a mass of 297.00 kg.

Starlink 3665について

説明を読み込み中...

次回通過

Passes for default location (London). Set your location on the main map for personalized predictions.

高度履歴

Loading altitude history...

軌道要素

1 52098U 22029L 26167.83099219 .00000102 00000-0 24522-4 0 9994
2 52098 53.1593 3.9617 0001240 91.5922 268.5211 15.08833363235626
Epoch: Jun 16, 2026 • Age: 6 hours

現在のステータス

高度 539.7 km
速度 7.60 km/s
衛星直下点 14.76°N, 72.95°E
打ち上げ日 Mar 19, 2022
運用期間 4.2 years
タイプ internet

技術仕様

分類 Payload
質量 297.00 kg
乾燥質量 275.00 kg
総質量 297.00 kg
長さ 0.20 m
直径 2.80 m
スパン 9.00 m
形状 Box + pan
製造者 SPXS
バスタイプ Starlink
フェーズステータス In Orbit
所有者/国 SPXS/US

Most Searched